When you browse on this site, cookies collect data to enhance your experience and personalize the content and advertising you see.
Visit our Privacy Policy to learn more. By continuing to use the site, you agree to this use of cookies and data.
  • In Hungary
  • List of Countries
  • For 7 days
  • Water Temperature
  • Weather Map
  • News
  • Weather Widgets
  • user-avatar
    Login

    Hourly Weather Tarija

    Today, 29 May, Friday

    Time Temperature Precipitation Wind Pressure Humidity
    00:00 +12°C° 0 mm 0 mps 596 mmHg 59%
    01:00 +13°C° 0 mm 1 mps 595 mmHg 58%
    02:00 +13°C° 0 mm 1 mps 595 mmHg 56%
    03:00 +13°C° 0 mm 1 mps 595 mmHg 53%
    04:00 +13°C° 0 mm 1 mps 595 mmHg 50%
    05:00 +13°C° 0 mm 1 mps 595 mmHg 47%
    06:00 +14°C° 0 mm 1 mps 596 mmHg 45%
    07:00 +15°C° 0 mm 1 mps 597 mmHg 43%
    08:00 +18°C° 0 mm 1 mps 598 mmHg 40%
    09:00 +20°C° 0 mm 1 mps 599 mmHg 34%
    10:00 +22°C° 0 mm 1 mps 600 mmHg 28%
    11:00 +24°C° 0 mm 2 mps 601 mmHg 21%
    12:00 +25°C° 0 mm 2 mps 600 mmHg 21%
    13:00 +26°C° 0 mm 2 mps 600 mmHg 21%
    14:00 +26°C° 0 mm 2 mps 599 mmHg 21%
    15:00 +25°C° 0 mm 2 mps 598 mmHg 28%
    16:00 +24°C° 0 mm 2 mps 598 mmHg 36%
    17:00 +21°C° 0 mm 2 mps 598 mmHg 43%
    18:00 +19°C° 0 mm 2 mps 597 mmHg 51%
    19:00 +18°C° 0 mm 1 mps 596 mmHg 58%
    20:00 +15°C° 0 mm 1 mps 596 mmHg 66%
    21:00 +15°C° 0 mm 1 mps 596 mmHg 65%
    22:00 +14°C° 0 mm 1 mps 596 mmHg 65%
    23:00 +14°C° 0 mm 1 mps 596 mmHg 64%

    Tomorrow, 30 May, Saturday

    Time Temperature Precipitation Wind Pressure Humidity
    00:00 +13°C° 0 mm 1 mps 596 mmHg 63%
    01:00 +13°C° 0 mm 1 mps 595 mmHg 61%
    02:00 +13°C° 0 mm 1 mps 595 mmHg 60%
    03:00 +13°C° 0 mm 1 mps 595 mmHg 58%
    04:00 +13°C° 0 mm 1 mps 595 mmHg 55%
    05:00 +12°C° 0 mm 1 mps 595 mmHg 53%
    06:00 +14°C° 0 mm 1 mps 596 mmHg 50%
    07:00 +15°C° 0 mm 1 mps 597 mmHg 48%
    08:00 +18°C° 0 mm 1 mps 598 mmHg 45%
    09:00 +20°C° 0 mm 1 mps 598 mmHg 39%
    10:00 +22°C° 0 mm 1 mps 599 mmHg 33%
    11:00 +24°C° 0 mm 1 mps 600 mmHg 26%
    12:00 +24°C° 0 mm 2 mps 599 mmHg 27%
    13:00 +25°C° 0 mm 2 mps 599 mmHg 28%
    14:00 +25°C° 0 mm 3 mps 598 mmHg 28%
    15:00 +24°C° 0 mm 3 mps 598 mmHg 38%
    16:00 +21°C° 0 mm 3 mps 597 mmHg 47%
    17:00 +20°C° 0 mm 3 mps 596 mmHg 57%
    18:00 +18°C° 0 mm 3 mps 596 mmHg 67%
    19:00 +17°C° 0 mm 2 mps 596 mmHg 78%
    20:00 +15°C° 0 mm 1 mps 596 mmHg 88%
    21:00 +15°C° 0 mm 1 mps 596 mmHg 89%
    22:00 +15°C° 0 mm 1 mps 597 mmHg 89%
    23:00 +14°C° 0 mm 1 mps 597 mmHg 90%

    Day after tomorrow, 31 May, Sunday

    Time Temperature Precipitation Wind Pressure Humidity
    00:00 +14°C° 0 mm 1 mps 597 mmHg 90%
    01:00 +14°C° 0 mm 1 mps 597 mmHg 91%
    02:00 +14°C° 0 mm 1 mps 597 mmHg 91%
    03:00 +14°C° 0 mm 1 mps 597 mmHg 92%
    04:00 +13°C° 0 mm 1 mps 597 mmHg 92%
    05:00 +13°C° 0 mm 1 mps 597 mmHg 92%
    06:00 +13°C° 0 mm 1 mps 597 mmHg 90%
    07:00 +14°C° 0 mm 1 mps 598 mmHg 88%
    08:00 +14°C° 0 mm 1 mps 598 mmHg 86%
    09:00 +15°C° 0 mm 2 mps 599 mmHg 80%
    10:00 +16°C° 0 mm 3 mps 599 mmHg 73%
    11:00 +17°C° 0 mm 3 mps 599 mmHg 67%
    12:00 +17°C° 0 mm 4 mps 598 mmHg 65%
    13:00 +18°C° 0 mm 4 mps 598 mmHg 62%
    14:00 +18°C° 0 mm 4 mps 597 mmHg 60%
    15:00 +17°C° 0 mm 4 mps 597 mmHg 62%
    16:00 +15°C° 0 mm 5 mps 597 mmHg 63%
    17:00 +15°C° 0 mm 5 mps 596 mmHg 65%
    18:00 +14°C° 0 mm 5 mps 597 mmHg 68%
    19:00 +13°C° 0 mm 4 mps 597 mmHg 71%
    20:00 +12°C° 0 mm 4 mps 597 mmHg 74%
    21:00 +12°C° 0 mm 4 mps 597 mmHg 74%
    22:00 +11°C° 0 mm 4 mps 597 mmHg 74%
    23:00 +10°C° 0 mm 5 mps 597 mmHg 75%

    1 June, Monday

    Time Temperature Precipitation Wind Pressure Humidity
    00:00 +11°C° 0 mm 4 mps 597 mmHg 75%
    01:00 +10°C° 0 mm 4 mps 597 mmHg 76%
    02:00 +10°C° 0 mm 4 mps 597 mmHg 76%
    03:00 +10°C° 0 mm 4 mps 597 mmHg 75%
    04:00 +9°C° 0 mm 3 mps 597 mmHg 74%
    05:00 +9°C° 0 mm 3 mps 596 mmHg 73%
    06:00 +9°C° 0 mm 3 mps 597 mmHg 70%
    07:00 +10°C° 0 mm 4 mps 598 mmHg 68%
    08:00 +10°C° 0 mm 4 mps 598 mmHg 65%
    09:00 +12°C° 0 mm 5 mps 599 mmHg 55%
    10:00 +15°C° 0 mm 5 mps 600 mmHg 45%
    11:00 +17°C° 0 mm 6 mps 601 mmHg 35%
    12:00 +17°C° 0 mm 6 mps 600 mmHg 36%
    13:00 +17°C° 0 mm 6 mps 599 mmHg 37%
    14:00 +17°C° 0 mm 6 mps 599 mmHg 38%
    15:00 +15°C° 0 mm 5 mps 598 mmHg 46%
    16:00 +13°C° 0 mm 5 mps 597 mmHg 54%
    17:00 +11°C° 0 mm 4 mps 596 mmHg 62%
    18:00 +10°C° 0 mm 3 mps 596 mmHg 66%
    19:00 +9°C° 0 mm 2 mps 596 mmHg 70%
    20:00 +9°C° 0 mm 1 mps 597 mmHg 74%
    21:00 +9°C° 0 mm 1 mps 597 mmHg 75%
    22:00 +8°C° 0 mm 1 mps 597 mmHg 76%
    23:00 +7°C° 0 mm 0 mps 597 mmHg 76%

    2 June, Tuesday

    Time Temperature Precipitation Wind Pressure Humidity
    00:00 +6°C° 0 mm 0 mps 596 mmHg 77%
    01:00 +6°C° 0 mm 0 mps 596 mmHg 77%
    02:00 +6°C° 0 mm 0 mps 596 mmHg 77%
    03:00 +5°C° 0 mm 0 mps 595 mmHg 74%
    04:00 +5°C° 0 mm 0 mps 595 mmHg 71%
    05:00 +5°C° 0 mm 0 mps 595 mmHg 68%
    06:00 +7°C° 0 mm 1 mps 596 mmHg 61%
    07:00 +9°C° 0 mm 1 mps 597 mmHg 55%
    08:00 +10°C° 0 mm 1 mps 598 mmHg 48%
    09:00 +12°C° 0 mm 2 mps 598 mmHg 42%
    10:00 +14°C° 0 mm 2 mps 599 mmHg 36%
    11:00 +17°C° 0 mm 2 mps 599 mmHg 30%
    12:00 +18°C° 0 mm 2 mps 598 mmHg 28%
    13:00 +19°C° 0 mm 3 mps 598 mmHg 26%
    14:00 +20°C° 0 mm 3 mps 598 mmHg 23%
    15:00 +19°C° 0 mm 3 mps 597 mmHg 29%
    16:00 +18°C° 0 mm 3 mps 596 mmHg 36%
    17:00 +17°C° 0 mm 3 mps 595 mmHg 42%
    18:00 +14°C° 0 mm 3 mps 595 mmHg 46%
    19:00 +12°C° 0 mm 3 mps 594 mmHg 51%
    20:00 +10°C° 0 mm 2 mps 594 mmHg 56%
    21:00 +10°C° 0 mm 2 mps 594 mmHg 55%
    22:00 +10°C° 0 mm 2 mps 594 mmHg 54%
    23:00 +9°C° 0 mm 2 mps 593 mmHg 53%

    3 June, Wednesday

    Time Temperature Precipitation Wind Pressure Humidity
    00:00 +9°C° 0 mm 2 mps 593 mmHg 50%
    01:00 +9°C° 0 mm 2 mps 593 mmHg 47%
    02:00 +9°C° 0 mm 2 mps 593 mmHg 43%
    03:00 +9°C° 0 mm 2 mps 593 mmHg 39%
    04:00 +9°C° 0 mm 2 mps 593 mmHg 36%
    05:00 +9°C° 0 mm 2 mps 592 mmHg 32%
    06:00 +10°C° 0 mm 3 mps 593 mmHg 28%
    07:00 +11°C° 0 mm 3 mps 594 mmHg 25%
    08:00 +13°C° 0 mm 4 mps 595 mmHg 21%
    09:00 +15°C° 0 mm 5 mps 596 mmHg 17%
    10:00 +19°C° 0 mm 6 mps 597 mmHg 14%
    11:00 +22°C° 0 mm 7 mps 597 mmHg 10%
    12:00 +23°C° 0 mm 8 mps 597 mmHg 10%
    13:00 +24°C° 0 mm 9 mps 597 mmHg 9%
    14:00 +26°C° 0 mm 10 mps 596 mmHg 8%
    15:00 +23°C° 0 mm 9 mps 596 mmHg 12%
    16:00 +22°C° 0 mm 8 mps 595 mmHg 16%
    17:00 +20°C° 0 mm 7 mps 595 mmHg 19%
    18:00 +17°C° 0 mm 6 mps 594 mmHg 26%
    19:00 +15°C° 0 mm 5 mps 594 mmHg 33%
    20:00 +12°C° 0 mm 3 mps 593 mmHg 40%
    21:00 +11°C° 0 mm 3 mps 594 mmHg 47%
    22:00 +10°C° 0 mm 2 mps 594 mmHg 54%
    23:00 +9°C° 0 mm 2 mps 594 mmHg 61%
    Show more